Terminal Aerodrome Forecast
Issued by NWS

Home | Current Version | Previous Version | Text Only | Print | Product List | Glossary On
Versions: 1 2 3 4 5 6 7 8 9 10 11 12 13 14
000
FTUS45 KRIW 282329
TAFWRL
TAF
KWRL 282329Z 2900/2924 VRB15G25KT P6SM VCTS SCT070CB BKN100
     FM290300 VRB08G15KT P6SM VCSH SCT080 BKN100
     FM290900 15007KT P6SM SCT100 BKN150
     FM291500 34012KT P6SM VCSH SCT050 BKN070
     FM291900 35016G25KT P6SM VCTS SCT060CB BKN080=

USA.gov is the U.S. government's official web portal to all federal, state and local government web resources and services.